"read_dt","SO2 (ppb)","flags","PMT voltage (V)","lamp voltage (V)","lamp intensity (Hz)","internal temp (C)","react chamber temp (C)","sample flow (l/min)","pres (mmHg)","SO2 bkg (ppb)","SO2 coefficient"
2014-03-21 00:00:00,5225E-2,5C000490,-0724,1376,5287,026.7,045.2,0.149,759.8,01.16,0.508
2014-03-21 00:01:00,5240E-2,5C000490,-0724,1376,5275,026.7,045.3,0.149,759.8,01.16,0.508
2014-03-21 00:02:00,5207E-2,5C000490,-0724,1376,5272,026.8,045.3,0.149,759.8,01.16,0.508
2014-03-21 00:03:00,5196E-2,5C000490,-0724,1376,5298,026.7,045.3,0.149,759.8,01.16,0.508
2014-03-21 00:04:00,5279E-2,5C000490,-0724,1376,5263,026.8,045.3,0.149,759.8,01.16,0.508
2014-03-21 00:05:00,5321E-2,5C000490,-0724,1376,5234,026.8,045.3,0.149,759.8,01.16,0.508
2014-03-21 00:06:00,5249E-2,5C000490,-0724,1376,5261,026.8,045.3,0.149,759.8,01.16,0.508
2014-03-21 00:07:00,5271E-2,5C000490,-0724,1376,5266,026.8,045.3,0.149,759.8,01.16,0.508
2014-03-21 00:08:00,5238E-2,5C000490,-0724,1376,5232,026.8,045.3,0.149,759.8,01.16,0.508
2014-03-21 00:09:00,5322E-2,5C000490,-0724,1376,5225,026.8,045.3,0.149,759.8,01.16,0.508
2014-03-21 00:10:00,5262E-2,5C000490,-0724,1376,5219,026.8,045.3,0.149,759.8,01.16,0.508
2014-03-21 00:11:00,5268E-2,5C000490,-0724,1376,5220,026.8,045.3,0.148,759.8,01.16,0.508
2014-03-21 00:12:00,5302E-2,5C000490,-0724,1376,5378,026.8,045.3,0.149,759.7,01.16,0.508
2014-03-21 00:13:00,5391E-2,5C000490,-0724,1376,5247,026.8,045.3,0.148,759.7,01.16,0.508
2014-03-21 00:14:00,5375E-2,5C000490,-0724,1376,5296,026.8,045.3,0.149,759.7,01.16,0.508
2014-03-21 00:15:00,5381E-2,5C000490,-0724,1376,5311,026.8,045.3,0.148,759.7,01.16,0.508
2014-03-21 00:16:00,5402E-2,5C000490,-0724,1376,5327,026.8,045.3,0.148,759.7,01.16,0.508
2014-03-21 00:17:00,5397E-2,5C000490,-0724,1376,5328,026.8,045.3,0.148,759.7,01.16,0.508
2014-03-21 00:18:00,5449E-2,5C000490,-0724,1376,5247,026.8,045.3,0.148,759.7,01.16,0.508
2014-03-21 00:19:00,5387E-2,5C000490,-0724,1376,5298,026.8,045.3,0.148,759.8,01.16,0.508
2014-03-21 00:20:00,5412E-2,5C000490,-0724,1376,5228,026.8,045.3,0.148,759.7,01.16,0.508
2014-03-21 00:21:00,5387E-2,5C000490,-0724,1376,5239,026.8,045.3,0.148,759.7,01.16,0.508
2014-03-21 00:22:00,5471E-2,5C000490,-0724,1376,5230,026.9,045.3,0.148,759.7,01.16,0.508
2014-03-21 00:23:00,5454E-2,5C000490,-0724,1376,5212,026.9,045.3,0.148,759.7,01.16,0.508
2014-03-21 00:24:00,5469E-2,5C000490,-0724,1376,5274,026.8,045.3,0.148,759.7,01.16,0.508
2014-03-21 00:25:00,5477E-2,5C000490,-0724,1376,5245,026.9,045.3,0.148,759.7,01.16,0.508
2014-03-21 00:26:00,5514E-2,5C000490,-0724,1376,5216,026.9,045.3,0.148,759.7,01.16,0.508
2014-03-21 00:27:00,5408E-2,5C000490,-0724,1376,5188,026.9,045.3,0.148,759.6,01.16,0.508
2014-03-21 00:28:00,5497E-2,5C000490,-0724,1376,5247,026.9,045.3,0.148,759.7,01.16,0.508
2014-03-21 00:29:00,5507E-2,5C000490,-0724,1376,5233,026.9,045.3,0.148,759.6,01.16,0.508
2014-03-21 00:30:00,5460E-2,5C000490,-0724,1376,5385,026.9,045.3,0.148,759.6,01.16,0.508
2014-03-21 00:31:00,5392E-2,5C000490,-0724,1376,5292,026.9,045.3,0.148,759.6,01.16,0.508
2014-03-21 00:32:00,5434E-2,5C000490,-0724,1376,5333,026.9,045.3,0.148,759.6,01.16,0.508
2014-03-21 00:33:00,5457E-2,5C000490,-0724,1376,5286,026.9,045.3,0.148,759.5,01.16,0.508
2014-03-21 00:34:00,5410E-2,5C000490,-0724,1376,5298,026.9,045.3,0.148,759.6,01.16,0.508
2014-03-21 00:35:00,5411E-2,5C000490,-0724,1376,5312,026.9,045.3,0.148,759.6,01.16,0.508
2014-03-21 00:36:00,5432E-2,5C000490,-0724,1376,5274,026.9,045.3,0.148,759.5,01.16,0.508
2014-03-21 00:37:00,5403E-2,5C000490,-0724,1376,5296,026.9,045.3,0.148,759.5,01.16,0.508
2014-03-21 00:38:00,5413E-2,5C000490,-0724,1376,5251,027.0,045.3,0.148,759.5,01.16,0.508
2014-03-21 00:39:00,5389E-2,5C000490,-0724,1376,5290,027.0,045.3,0.148,759.5,01.16,0.508
2014-03-21 00:40:00,5428E-2,5C000490,-0724,1376,5311,027.0,045.3,0.148,759.6,01.16,0.508
2014-03-21 00:41:00,5381E-2,5C000490,-0724,1376,5293,027.0,045.3,0.148,759.5,01.16,0.508
2014-03-21 00:42:00,5568E-2,5C000490,-0724,1376,5265,027.0,045.3,0.148,759.4,01.16,0.508
2014-03-21 00:43:00,5509E-2,5C000490,-0724,1376,5255,027.0,045.3,0.148,759.4,01.16,0.508
2014-03-21 00:44:00,5516E-2,5C000490,-0724,1376,5215,027.0,045.3,0.148,759.4,01.16,0.508
2014-03-21 00:45:00,5502E-2,5C000490,-0724,1376,5229,027.0,045.3,0.148,759.5,01.16,0.508
2014-03-21 00:46:00,5530E-2,5C000490,-0724,1376,5271,027.0,045.3,0.148,759.5,01.16,0.508
2014-03-21 00:47:00,5573E-2,5C000490,-0724,1376,5388,027.0,045.3,0.148,759.5,01.16,0.508
2014-03-21 00:48:00,5436E-2,5C000490,-0724,1376,5405,027.0,045.3,0.148,759.5,01.16,0.508
2014-03-21 00:49:00,5478E-2,5C000490,-0724,1376,5344,027.0,045.3,0.148,759.5,01.16,0.508
2014-03-21 00:50:00,5486E-2,5C000490,-0724,1376,5389,027.0,045.3,0.148,759.4,01.16,0.508
2014-03-21 00:51:00,5446E-2,5C000490,-0724,1376,5302,027.0,045.3,0.148,759.4,01.16,0.508
2014-03-21 00:52:00,5471E-2,5C000490,-0724,1376,5362,027.0,045.3,0.148,759.4,01.16,0.508
2014-03-21 00:53:00,5465E-2,5C000490,-0724,1376,5325,027.0,045.2,0.148,759.4,01.16,0.508
2014-03-21 00:54:00,5532E-2,5C000490,-0724,1376,5306,027.0,045.3,0.148,759.4,01.16,0.508
2014-03-21 00:55:00,5474E-2,5C000490,-0724,1376,5349,027.1,045.3,0.148,759.3,01.16,0.508
2014-03-21 00:56:00,5524E-2,5C000490,-0724,1376,5644,027.1,045.3,0.148,759.4,01.16,0.508
2014-03-21 00:57:00,5771E-2,5C000490,-0724,1376,5678,027.1,045.3,0.148,759.4,01.16,0.508
2014-03-21 00:58:00,5680E-2,5C000490,-0724,1376,5663,027.1,045.3,0.148,759.3,01.16,0.508
2014-03-21 00:59:00,5734E-2,5C000490,-0724,1376,5609,027.1,045.3,0.148,759.3,01.16,0.508
2014-03-21 01:00:00,5681E-2,5C000490,-0724,1376,5589,027.1,045.3,0.147,759.3,01.16,0.508
2014-03-21 01:01:00,5687E-2,5C000490,-0724,1376,5629,027.1,045.3,0.147,759.3,01.16,0.508
2014-03-21 01:02:00,5728E-2,5C000490,-0724,1376,5559,027.1,045.3,0.147,759.3,01.16,0.508
2014-03-21 01:03:00,5699E-2,5C000490,-0724,1376,5607,027.1,045.3,0.147,759.3,01.16,0.508
2014-03-21 01:04:00,5684E-2,5C000490,-0724,1376,5516,027.1,045.3,0.147,759.3,01.16,0.508
2014-03-21 01:05:00,5689E-2,5C000490,-0724,1376,5585,027.1,045.3,0.147,759.3,01.16,0.508
2014-03-21 01:06:00,5723E-2,5C000490,-0724,1376,5628,027.1,045.3,0.147,759.3,01.16,0.508
2014-03-21 01:07:00,5693E-2,5C000490,-0724,1376,5575,027.1,045.3,0.147,759.2,01.16,0.508
2014-03-21 01:08:00,5646E-2,5C000490,-0724,1376,5524,027.1,045.3,0.147,759.3,01.16,0.508
2014-03-21 01:09:00,5693E-2,5C000490,-0724,1376,5532,027.1,045.3,0.147,759.3,01.16,0.508
2014-03-21 01:10:00,5697E-2,5C000490,-0724,1376,5550,027.1,045.3,0.147,759.2,01.16,0.508
2014-03-21 01:11:00,5720E-2,5C000490,-0724,1376,5546,027.1,045.3,0.147,759.2,01.16,0.508
2014-03-21 01:12:00,5661E-2,5C000490,-0724,1376,5518,027.2,045.3,0.147,759.2,01.16,0.508
2014-03-21 01:13:00,5656E-2,5C000490,-0724,1376,5456,027.2,045.3,0.147,759.2,01.16,0.508
2014-03-21 01:14:00,5636E-2,5C000490,-0724,1376,5479,027.2,045.3,0.147,759.2,01.16,0.508
2014-03-21 01:15:00,5695E-2,5C000490,-0724,1376,5435,027.2,045.3,0.147,759.2,01.16,0.508
2014-03-21 01:16:00,5759E-2,5C000490,-0724,1376,5437,027.2,045.3,0.147,759.1,01.16,0.508
2014-03-21 01:17:00,5649E-2,5C000490,-0724,1376,5424,027.2,045.3,0.147,759.1,01.16,0.508
2014-03-21 01:18:00,5682E-2,5C000490,-0724,1376,5458,027.2,045.3,0.147,759.1,01.16,0.508
2014-03-21 01:19:00,5662E-2,5C000490,-0724,1376,5470,027.2,045.3,0.147,759.2,01.16,0.508
2014-03-21 01:20:00,5648E-2,5C000490,-0724,1376,5455,027.2,045.3,0.147,759.2,01.16,0.508
2014-03-21 01:21:00,5627E-2,5C000490,-0724,1376,5399,027.2,045.3,0.147,759.1,01.16,0.508
2014-03-21 01:22:00,5690E-2,5C000490,-0724,1376,5446,027.2,045.3,0.147,759.2,01.16,0.508
2014-03-21 01:23:00,5597E-2,5C000490,-0724,1376,5344,027.2,045.3,0.147,759.1,01.16,0.508
2014-03-21 01:24:00,5627E-2,5C000490,-0724,1376,5376,027.3,045.3,0.147,759.1,01.16,0.508
2014-03-21 01:25:00,5650E-2,5C000490,-0724,1376,5448,027.3,045.3,0.147,759.1,01.16,0.508
2014-03-21 01:26:00,5646E-2,5C000490,-0724,1376,5425,027.3,045.3,0.147,759.1,01.16,0.508
2014-03-21 01:27:00,5615E-2,5C000490,-0724,1376,5344,027.3,045.3,0.147,759.0,01.16,0.508
2014-03-21 01:28:00,5536E-2,5C000490,-0724,1376,5389,027.3,045.3,0.147,759.0,01.16,0.508
2014-03-21 01:29:00,5637E-2,5C000490,-0724,1376,5428,027.3,045.3,0.147,759.1,01.16,0.508
2014-03-21 01:30:00,5608E-2,5C000490,-0724,1376,5452,027.3,045.3,0.147,759.0,01.16,0.508
2014-03-21 01:31:00,5654E-2,5C000490,-0724,1376,5254,027.3,045.3,0.147,759.1,01.16,0.508
2014-03-21 01:32:00,5272E-2,5C000490,-0724,1376,5254,027.3,045.3,0.147,759.0,01.16,0.508
2014-03-21 01:33:00,5289E-2,5C000490,-0724,1376,5223,027.3,045.3,0.147,759.0,01.16,0.508
2014-03-21 01:34:00,5300E-2,5C000490,-0724,1376,5280,027.3,045.3,0.147,759.0,01.16,0.508
2014-03-21 01:35:00,5218E-2,5C000490,-0724,1376,5393,027.3,045.3,0.147,759.0,01.16,0.508
2014-03-21 01:36:00,5261E-2,5C000490,-0724,1376,5402,027.3,045.3,0.147,759.0,01.16,0.508
2014-03-21 01:37:00,5243E-2,5C000490,-0724,1376,5390,027.4,045.3,0.146,758.9,01.16,0.508
2014-03-21 01:38:00,5251E-2,5C000490,-0724,1376,5408,027.3,045.3,0.146,759.0,01.16,0.508
2014-03-21 01:39:00,5284E-2,5C000490,-0724,1376,5309,027.4,045.3,0.146,759.0,01.16,0.508
2014-03-21 01:40:00,5377E-2,5C000490,-0724,1376,5962,027.4,045.3,0.146,758.9,01.16,0.508
2014-03-21 01:41:00,5465E-2,5C000490,-0724,1376,6051,027.4,045.3,0.146,759.0,01.16,0.508
2014-03-21 01:42:00,5527E-2,5C000490,-0724,1376,5938,027.4,045.3,0.146,758.9,01.16,0.508
2014-03-21 01:43:00,5528E-2,5C000490,-0724,1376,5872,027.4,045.3,0.146,758.9,01.16,0.508
2014-03-21 01:44:00,5466E-2,5C000490,-0724,1376,6005,027.4,045.3,0.000,759.0,01.16,0.508
2014-03-21 01:45:00,5446E-2,5C000490,-0724,1376,5959,027.4,045.3,0.000,759.0,01.16,0.508
2014-03-21 01:46:00,5538E-2,5C000490,-0724,1376,5925,027.4,045.3,0.000,758.9,01.16,0.508
2014-03-21 01:47:00,5423E-2,5C000490,-0724,1376,5932,027.4,045.3,0.000,758.8,01.16,0.508
2014-03-21 01:48:00,5437E-2,5C000490,-0724,1376,5937,027.5,045.3,0.000,758.8,01.16,0.508
2014-03-21 01:49:00,5395E-2,5C000490,-0724,1376,5902,027.5,045.3,0.000,758.9,01.16,0.508
2014-03-21 01:50:00,5490E-2,5C000490,-0724,1376,5881,027.5,045.3,0.000,758.9,01.16,0.508
2014-03-21 01:51:00,5471E-2,5C000490,-0724,1376,5833,027.5,045.3,0.000,758.9,01.16,0.508
2014-03-21 01:52:00,5448E-2,5C000490,-0724,1376,5863,027.5,045.3,0.000,758.8,01.16,0.508
2014-03-21 01:53:00,5476E-2,5C000490,-0724,1376,5773,027.5,045.3,0.000,758.8,01.16,0.508
2014-03-21 01:54:00,5498E-2,5C000490,-0724,1376,5803,027.5,045.3,0.000,758.9,01.16,0.508
2014-03-21 01:55:00,5475E-2,5C000490,-0724,1376,5771,027.5,045.3,0.000,758.9,01.16,0.508
2014-03-21 01:56:00,5450E-2,5C000490,-0724,1376,5767,027.5,045.3,0.000,758.8,01.16,0.508
2014-03-21 01:57:00,5415E-2,5C000490,-0724,1376,5709,027.5,045.3,0.000,758.8,01.16,0.508
2014-03-21 01:58:00,5433E-2,5C000490,-0724,1376,5714,027.5,045.3,0.000,758.9,01.16,0.508
2014-03-21 01:59:00,5458E-2,5C000490,-0724,1376,5718,027.5,045.3,0.000,758.8,01.16,0.508
2014-03-21 02:00:00,5403E-2,5C000490,-0724,1376,5751,027.5,045.3,0.000,758.9,01.16,0.508
2014-03-21 02:01:00,5478E-2,5C000490,-0724,1376,5871,027.5,045.3,0.000,758.9,01.16,0.508
2014-03-21 02:02:00,5485E-2,5C000490,-0724,1376,5901,027.5,045.3,0.000,758.8,01.16,0.508
2014-03-21 02:03:00,5424E-2,5C000490,-0724,1376,5850,027.6,045.3,0.000,758.8,01.16,0.508
2014-03-21 02:04:00,5467E-2,5C000490,-0724,1376,5852,027.6,045.3,0.000,758.8,01.16,0.508
2014-03-21 02:05:00,5448E-2,5C000490,-0724,1376,5854,027.6,045.3,0.000,758.8,01.16,0.508
2014-03-21 02:06:00,5418E-2,5C000490,-0724,1376,5879,027.6,045.3,0.000,758.8,01.16,0.508
2014-03-21 02:07:00,5400E-2,5C000490,-0724,1376,5898,027.6,045.3,0.000,758.8,01.16,0.508
2014-03-21 02:08:00,5450E-2,5C000490,-0724,1376,5807,027.6,045.3,0.000,758.8,01.16,0.508
2014-03-21 02:09:00,5396E-2,5C000490,-0724,1376,5837,027.5,045.3,0.000,758.8,01.16,0.508
2014-03-21 02:10:00,5409E-2,5C000490,-0724,1376,5693,027.5,045.3,0.000,758.8,01.16,0.508
2014-03-21 02:11:00,5458E-2,5C000490,-0724,1376,5740,027.5,045.3,0.000,758.8,01.16,0.508
2014-03-21 02:12:00,5409E-2,5C000490,-0724,1376,5719,027.5,045.3,0.000,758.8,01.16,0.508
2014-03-21 02:13:00,5420E-2,5C000490,-0724,1376,5745,027.5,045.3,0.100,758.7,01.16,0.508
2014-03-21 02:14:00,5437E-2,5C000490,-0724,1376,5798,027.5,045.3,0.137,758.8,01.16,0.508
2014-03-21 02:15:00,5392E-2,5C000490,-0724,1376,5777,027.5,045.3,0.122,758.8,01.16,0.508
2014-03-21 02:16:00,5350E-2,5C000490,-0724,1376,5803,027.5,045.3,0.000,758.8,01.16,0.508
2014-03-21 02:17:00,5409E-2,5C000490,-0724,1376,5812,027.5,045.3,0.000,758.7,01.16,0.508
2014-03-21 02:18:00,5405E-2,5C000490,-0724,1376,5750,027.4,045.3,0.000,758.8,01.16,0.508
2014-03-21 02:19:00,5393E-2,5C000490,-0724,1376,5753,027.5,045.3,0.000,758.8,01.16,0.508
2014-03-21 02:20:00,5430E-2,5C000490,-0724,1376,5672,027.4,045.3,0.000,758.8,01.16,0.508
2014-03-21 02:21:00,5432E-2,5C000490,-0724,1376,5746,027.4,045.3,0.000,758.8,01.16,0.508
2014-03-21 02:22:00,5429E-2,5C000490,-0724,1376,5659,027.4,045.3,0.000,758.9,01.16,0.508
2014-03-21 02:23:00,5411E-2,5C000490,-0724,1376,5715,027.4,045.3,0.000,758.8,01.16,0.508
2014-03-21 02:24:00,5426E-2,5C000490,-0724,1376,5664,027.4,045.3,0.000,758.8,01.16,0.508
2014-03-21 02:25:00,5450E-2,5C000490,-0724,1376,5609,027.4,045.3,0.000,758.8,01.16,0.508
2014-03-21 02:26:00,5392E-2,5C000490,-0724,1376,5645,027.4,045.3,0.000,758.9,01.16,0.508
2014-03-21 02:27:00,5447E-2,5C000490,-0724,1376,5620,027.4,045.3,0.000,758.8,01.16,0.508
2014-03-21 02:28:00,5404E-2,5C000490,-0724,1376,5634,027.3,045.3,0.000,758.8,01.16,0.508
2014-03-21 02:29:00,5429E-2,5C000490,-0724,1376,5688,027.3,045.3,0.000,758.8,01.16,0.508
2014-03-21 02:30:00,5432E-2,5C000490,-0724,1376,5615,027.3,045.3,0.000,758.8,01.16,0.508
2014-03-21 02:31:00,5425E-2,5C000490,-0724,1376,5603,027.3,045.3,0.000,758.8,01.16,0.508
2014-03-21 02:32:00,5446E-2,5C000490,-0724,1376,5598,027.3,045.3,0.000,758.8,01.16,0.508
2014-03-21 02:33:00,5422E-2,5C000490,-0724,1376,5573,027.3,045.3,0.000,758.7,01.16,0.508
2014-03-21 02:34:00,5368E-2,5C000490,-0724,1376,5590,027.3,045.3,0.118,758.8,01.16,0.508
2014-03-21 02:35:00,5472E-2,5C000490,-0724,1376,5616,027.3,045.3,0.159,758.8,01.16,0.508
2014-03-21 02:36:00,5503E-2,5C000490,-0724,1376,5614,027.2,045.3,0.171,758.8,01.16,0.508
2014-03-21 02:37:00,5501E-2,5C000490,-0724,1376,5608,027.2,045.3,0.183,758.7,01.16,0.508
2014-03-21 02:38:00,5520E-2,5C000490,-0724,1376,5596,027.2,045.3,0.204,758.8,01.16,0.508
2014-03-21 02:39:00,5514E-2,5C000490,-0724,1376,5589,027.2,045.3,0.213,758.8,01.16,0.508
2014-03-21 02:40:00,5536E-2,5C000490,-0724,1376,5572,027.2,045.3,0.216,758.7,01.16,0.508
2014-03-21 02:41:00,5480E-2,5C000490,-0724,1376,5600,027.1,045.3,0.225,758.8,01.16,0.508
2014-03-21 02:42:00,5554E-2,5C000490,-0724,1376,5612,027.2,045.3,0.201,758.7,01.16,0.508
2014-03-21 02:43:00,5524E-2,5C000490,-0724,1376,5689,027.2,045.3,0.208,758.7,01.16,0.508
2014-03-21 02:44:00,5567E-2,5C000490,-0724,1376,5679,027.2,045.3,0.219,758.7,01.16,0.508
2014-03-21 02:45:00,5485E-2,5C000490,-0724,1376,5681,027.2,045.3,0.219,758.7,01.16,0.508
2014-03-21 02:46:00,5545E-2,5C000490,-0724,1376,5703,027.2,045.3,0.219,758.7,01.16,0.508
2014-03-21 02:47:00,5493E-2,5C000490,-0724,1376,5611,027.2,045.3,0.213,758.7,01.16,0.508
2014-03-21 02:48:00,5521E-2,5C000490,-0724,1376,5607,027.2,045.3,0.207,758.7,01.16,0.508
2014-03-21 02:49:00,5521E-2,5C000490,-0724,1376,5617,027.2,045.3,0.195,758.7,01.16,0.508
2014-03-21 02:50:00,5534E-2,5C000490,-0724,1376,5602,027.2,045.3,0.198,758.7,01.16,0.508
2014-03-21 02:51:00,5490E-2,5C000490,-0724,1376,5666,027.2,045.3,0.192,758.7,01.16,0.508
2014-03-21 02:52:00,5504E-2,5C000490,-0724,1376,5697,027.2,045.3,0.177,758.6,01.16,0.508
2014-03-21 02:53:00,5528E-2,5C000490,-0724,1376,5588,027.2,045.3,0.000,758.7,01.16,0.508
2014-03-21 02:54:00,5544E-2,5C000490,-0724,1376,5589,027.2,045.3,0.000,758.6,01.16,0.508
2014-03-21 02:55:00,5513E-2,5C000490,-0724,1376,5579,027.2,045.3,0.000,758.6,01.16,0.508
2014-03-21 02:56:00,5503E-2,5C000490,-0724,1376,5456,027.2,045.3,0.000,758.6,01.16,0.508
2014-03-21 02:57:00,5541E-2,5C000490,-0724,1376,5543,027.2,045.3,0.000,758.6,01.16,0.508
2014-03-21 02:58:00,5481E-2,5C000490,-0724,1376,5570,027.3,045.3,0.000,758.6,01.16,0.508
2014-03-21 02:59:00,5595E-2,5C000490,-0724,1376,5569,027.3,045.3,0.000,758.6,01.16,0.508
2014-03-21 03:00:00,5488E-2,5C000490,-0724,1376,5540,027.3,045.3,0.000,758.6,01.16,0.508
2014-03-21 03:01:00,5487E-2,5C000490,-0724,1376,5480,027.3,045.3,0.000,758.6,01.16,0.508
2014-03-21 03:02:00,5478E-2,5C000490,-0724,1376,5551,027.3,045.3,0.000,758.6,01.16,0.508
2014-03-21 03:03:00,5545E-2,5C000490,-0724,1376,5416,027.3,045.3,0.000,758.6,01.16,0.508
2014-03-21 03:04:00,5535E-2,5C000490,-0724,1376,5438,027.3,045.3,0.000,758.6,01.16,0.508
2014-03-21 03:05:00,5568E-2,5C000490,-0724,1376,5477,027.3,045.3,0.000,758.5,01.16,0.508
2014-03-21 03:06:00,5509E-2,5C000490,-0724,1376,5444,027.3,045.3,0.000,758.5,01.16,0.508
2014-03-21 03:07:00,5604E-2,5C000490,-0724,1376,5478,027.3,045.3,0.000,758.5,01.16,0.508
2014-03-21 03:08:00,5590E-2,5C000490,-0724,1376,5452,027.3,045.3,0.000,758.6,01.16,0.508
2014-03-21 03:09:00,5558E-2,5C000490,-0724,1376,5442,027.4,045.3,0.000,758.6,01.16,0.508
2014-03-21 03:10:00,5622E-2,5C000490,-0724,1376,5477,027.4,045.3,0.000,758.5,01.16,0.508
2014-03-21 03:11:00,5523E-2,5C000490,-0724,1376,5417,027.4,045.3,0.000,758.5,01.16,0.508
2014-03-21 03:12:00,5586E-2,5C000490,-0724,1376,5453,027.4,045.3,0.000,758.5,01.16,0.508
2014-03-21 03:13:00,5566E-2,5C000490,-0724,1376,5389,027.4,045.3,0.000,758.6,01.16,0.508
2014-03-21 03:14:00,5544E-2,5C000490,-0724,1376,5453,027.4,045.3,0.000,758.6,01.16,0.508
2014-03-21 03:15:00,5539E-2,5C000490,-0724,1376,5387,027.5,045.3,0.000,758.5,01.16,0.508
2014-03-21 03:16:00,5538E-2,5C000490,-0724,1376,5405,027.5,045.3,0.000,758.5,01.16,0.508
2014-03-21 03:17:00,5545E-2,5C000490,-0724,1376,5423,027.5,045.3,0.000,758.6,01.16,0.508
2014-03-21 03:18:00,5643E-2,5C000490,-0724,1376,5421,027.5,045.3,0.000,758.6,01.16,0.508
2014-03-21 03:19:00,5596E-2,5C000490,-0724,1376,5361,027.5,045.3,0.000,758.5,01.16,0.508
2014-03-21 03:20:00,5516E-2,5C000490,-0724,1376,5382,027.5,045.3,0.000,758.5,01.16,0.508
2014-03-21 03:21:00,5606E-2,5C000490,-0724,1376,5332,027.5,045.3,0.000,758.6,01.16,0.508
2014-03-21 03:22:00,5511E-2,5C000490,-0724,1376,5361,027.6,045.3,0.000,758.6,01.16,0.508
2014-03-21 03:23:00,5597E-2,5C000490,-0724,1376,5382,027.6,045.3,0.000,758.5,01.16,0.508
2014-03-21 03:24:00,5573E-2,5C000490,-0724,1376,5406,027.6,045.3,0.000,758.4,01.16,0.508
2014-03-21 03:25:00,5576E-2,5C000490,-0724,1376,5388,027.6,045.3,0.000,758.4,01.16,0.508
2014-03-21 03:26:00,5596E-2,5C000490,-0724,1376,5423,027.6,045.3,0.000,758.5,01.16,0.508
2014-03-21 03:27:00,5507E-2,5C000490,-0724,1376,5408,027.6,045.3,0.000,758.5,01.16,0.508
2014-03-21 03:28:00,5618E-2,5C000490,-0724,1376,5389,027.6,045.3,0.000,758.5,01.16,0.508
2014-03-21 03:29:00,5550E-2,5C000490,-0724,1376,5371,027.6,045.3,0.000,758.5,01.16,0.508
2014-03-21 03:30:00,5567E-2,5C000490,-0724,1376,5366,027.6,045.3,0.000,758.4,01.16,0.508
2014-03-21 03:31:00,5561E-2,5C000490,-0724,1376,5367,027.7,045.3,0.000,758.5,01.16,0.508
2014-03-21 03:32:00,5635E-2,5C000490,-0724,1376,5360,027.7,045.3,0.000,758.5,01.16,0.508
2014-03-21 03:33:00,5625E-2,5C000490,-0724,1376,5338,027.7,045.3,0.000,758.5,01.16,0.508
2014-03-21 03:34:00,5526E-2,5C000490,-0724,1376,5336,027.7,045.3,0.000,758.5,01.16,0.508
2014-03-21 03:35:00,5531E-2,5C000490,-0724,1376,5394,027.7,045.3,0.000,758.4,01.16,0.508
2014-03-21 03:36:00,5529E-2,5C000490,-0724,1376,5286,027.7,045.3,0.000,758.4,01.16,0.508
2014-03-21 03:37:00,5662E-2,5C000490,-0724,1376,5364,027.7,045.3,0.000,758.4,01.16,0.508
2014-03-21 03:38:00,5599E-2,5C000490,-0724,1376,5367,027.7,045.3,0.000,758.4,01.16,0.508
2014-03-21 03:39:00,5644E-2,5C000490,-0724,1376,5314,027.8,045.3,0.000,758.4,01.16,0.508
2014-03-21 03:40:00,5610E-2,5C000490,-0724,1376,5344,027.8,045.3,0.000,758.4,01.16,0.508
2014-03-21 03:41:00,5675E-2,5C000490,-0724,1376,5349,027.8,045.3,0.000,758.4,01.16,0.508
2014-03-21 03:42:00,5600E-2,5C000490,-0724,1376,5364,027.8,045.3,0.000,758.4,01.16,0.508
2014-03-21 03:43:00,5613E-2,5C000490,-0724,1376,5294,027.8,045.3,0.000,758.4,01.16,0.508
2014-03-21 03:44:00,5582E-2,5C000490,-0724,1376,5237,027.8,045.3,0.000,758.3,01.16,0.508
2014-03-21 03:45:00,5594E-2,5C000490,-0724,1376,5288,027.8,045.3,0.000,758.4,01.16,0.508
2014-03-21 03:46:00,5584E-2,5C000490,-0724,1376,5262,027.8,045.3,0.000,758.3,01.16,0.508
2014-03-21 03:47:00,5607E-2,5C000490,-0724,1376,5224,027.9,045.3,0.000,758.3,01.16,0.508
2014-03-21 03:48:00,5605E-2,5C000490,-0724,1376,5218,027.9,045.3,0.000,758.3,01.16,0.508
2014-03-21 03:49:00,5585E-2,5C000490,-0724,1376,5196,027.9,045.3,0.000,758.4,01.16,0.508
2014-03-21 03:50:00,5506E-2,5C000490,-0724,1376,5240,027.9,045.3,0.000,758.3,01.16,0.508
2014-03-21 03:51:00,5521E-2,5C000490,-0724,1376,5221,027.9,045.3,0.000,758.3,01.16,0.508
2014-03-21 03:52:00,5583E-2,5C000490,-0724,1376,5148,027.9,045.3,0.000,758.2,01.16,0.508
2014-03-21 03:53:00,5606E-2,5C000490,-0724,1376,5233,027.9,045.3,0.000,758.3,01.16,0.508
2014-03-21 03:54:00,5553E-2,5C000490,-0724,1376,5190,028.0,045.3,0.000,758.3,01.16,0.508
2014-03-21 03:55:00,5544E-2,5C000490,-0724,1376,5260,028.0,045.3,0.000,758.2,01.16,0.508
2014-03-21 03:56:00,5631E-2,5C000490,-0724,1376,5178,028.0,045.3,0.000,758.3,01.16,0.508
2014-03-21 03:57:00,5547E-2,5C000490,-0724,1376,5091,028.0,045.3,0.000,758.3,01.16,0.508
2014-03-21 03:58:00,5585E-2,5C000490,-0724,1376,5199,028.0,045.3,0.000,758.3,01.16,0.508
2014-03-21 03:59:00,5534E-2,5C000490,-0724,1376,5157,028.0,045.3,0.000,758.3,01.16,0.508
2014-03-21 04:00:00,5525E-2,5C000490,-0724,1376,5133,028.1,045.3,0.000,758.3,01.16,0.508
2014-03-21 04:01:00,5547E-2,5C000490,-0724,1376,5076,028.0,045.3,0.000,758.2,01.16,0.508
2014-03-21 04:02:00,5568E-2,5C000490,-0724,1376,5093,028.0,045.3,0.000,758.2,01.16,0.508
2014-03-21 04:03:00,5529E-2,5C000490,-0724,1376,5174,028.1,045.3,0.000,758.3,01.16,0.508
2014-03-21 04:04:00,5579E-2,5C000490,-0724,1376,5144,028.1,045.3,0.000,758.2,01.16,0.508
2014-03-21 04:05:00,5583E-2,5C000490,-0724,1376,5115,028.1,045.3,0.000,758.3,01.16,0.508
2014-03-21 04:06:00,5709E-2,5C000490,-0724,1376,5234,028.1,045.3,0.000,758.2,01.16,0.508
2014-03-21 04:07:00,5856E-2,5C000490,-0724,1376,5192,028.1,045.3,0.000,758.2,01.16,0.508
2014-03-21 04:08:00,5979E-2,5C000490,-0724,1376,5127,028.1,045.3,0.000,758.2,01.16,0.508
2014-03-21 04:09:00,5957E-2,5C000490,-0724,1376,5248,028.1,045.3,0.000,758.1,01.16,0.508
2014-03-21 04:10:00,5872E-2,5C000490,-0724,1376,5251,028.1,045.3,0.000,758.1,01.16,0.508
2014-03-21 04:11:00,5912E-2,5C000490,-0724,1376,5188,028.2,045.3,0.000,758.1,01.16,0.508
2014-03-21 04:12:00,5989E-2,5C000490,-0724,1376,5196,028.2,045.3,0.000,758.1,01.16,0.508
2014-03-21 04:13:00,5972E-2,5C000490,-0724,1376,5278,028.2,045.3,0.000,758.1,01.16,0.508
2014-03-21 04:14:00,5876E-2,5C000490,-0724,1376,5173,028.2,045.3,0.000,758.0,01.16,0.508
2014-03-21 04:15:00,5934E-2,5C000490,-0724,1376,5167,028.2,045.3,0.000,758.1,01.16,0.508
2014-03-21 04:16:00,5966E-2,5C000490,-0724,1376,5234,028.2,045.3,0.000,758.1,01.16,0.508
2014-03-21 04:17:00,5935E-2,5C000490,-0724,1376,5197,028.2,045.3,0.000,758.0,01.16,0.508
2014-03-21 04:18:00,5954E-2,5C000490,-0724,1376,5164,028.2,045.3,0.000,758.0,01.16,0.508
2014-03-21 04:19:00,5986E-2,5C000490,-0724,1376,5180,028.2,045.3,0.000,758.0,01.16,0.508
2014-03-21 04:20:00,5928E-2,5C000490,-0724,1376,5178,028.3,045.3,0.000,758.1,01.16,0.508
2014-03-21 04:21:00,5975E-2,5C000490,-0724,1376,5161,028.3,045.3,0.000,758.0,01.16,0.508
2014-03-21 04:22:00,6001E-2,5C000490,-0724,1376,5138,028.3,045.3,0.000,758.0,01.16,0.508
2014-03-21 04:23:00,5963E-2,5C000490,-0724,1376,5201,028.3,045.3,0.000,758.0,01.16,0.508